Regional Weather Roundup
Issued by NWS

Home | Current Version | Previous Version | Text Only | Print | Product List | Glossary Off
Versions: 1 2 3 4 5 6 7 8 9 10 11 12 13 14 15 16 17 18 19 20 21 22 23 24 25 26 27 28 29 30 31 32 33 34 35 36 37 38 39 40 41 42 43 44 45 46 47 48 49 50

000
ASUS43 KBIS 310110
RWRND

NORTH DAKOTA REGIONAL WEATHER ROUNDUP
NATIONAL WEATHER SERVICE BISMARCK ND
800 PM CDT THU JUL 30 2015

NOTE: "FAIR" INDICATES FEW OR NO CLOUDS BELOW 12,000 FEET WITH NO
SIGNIFICANT WEATHER AND/OR OBSTRUCTIONS TO VISIBILITY.


NDZ001>003-009>011-017-310200-
NORTHWEST NORTH DAKOTA

CITY           SKY/WX    TMP DP  RH WIND       PRES   REMARKS
WILLISTON      SUNNY     82  42  24 N10       30.13F
MINOT          SUNNY     75  47  36 NW14      30.11S
MINOT AFB      SUNNY     79  46  31 NW15      30.10R
$$

NDZ018>021-031>035-040>046-310200-
SOUTHWEST NORTH DAKOTA

CITY           SKY/WX    TMP DP  RH WIND       PRES   REMARKS
BISMARCK       SUNNY     81  46  29 N10       30.12F
DICKINSON      SUNNY     80  44  27 N7        30.15S
GARRISON         N/A     76  53  44 N8        30.12F
HETTINGER ARPT SUNNY     83  42  23 N8        30.17F
$$

NDZ004>008-012>016-024-026-027-054-310200-
NORTHEAST NORTH DAKOTA

CITY           SKY/WX    TMP DP  RH WIND       PRES   REMARKS
GRAND FORKS    PTCLDY    77  55  46 NW12      29.98R
GRND FRKS AFB  CLEAR     75  53  45 NW13G22   30.00R
DEVILS LAKE    SUNNY     75  48  38 NW16      30.04S
$$

NDZ022-023-025-028>030-036>039-047>053-310200-
SOUTHEAST NORTH DAKOTA

CITY           SKY/WX    TMP DP  RH WIND       PRES   REMARKS
FARGO          CLEAR     79  55  43 W10       30.01S
JAMESTOWN      SUNNY     77  51  40 NW14      30.07S
$$




USA.gov is the U.S. government's official web portal to all federal, state and local government web resources and services.